Regional Weather Roundup
Issued by NWS

Home | Current Version | Previous Version | Graphics & Text | Print | Product List | Glossary On
Versions: 1 2 3 4 5 6 7 8 9 10 11 12 13 14 15 16 17 18 19 20 21 22 23 24 25 26 27 28 29 30 31 32 33 34 35 36 37 38 39 40 41 42 43 44 45 46 47 48 49 50
000
ASUS43 KOAX 312202
RWRNE

WEATHER ROUNDUP FOR NEBRASKA
NATIONAL WEATHER SERVICE OMAHA NE
500 PM CDT FRI JUL 31 2015

NOTES: SATELLITE DATA IS BEING USED TO AUGMENT CLOUD COVER ABOVE
       12000 FEET.
       "FAIR" INDICATES FEW OR NO CLOUDS BELOW 12,000 FEET WITH NO
       SIGNIFICANT WEATHER AND/OR OBSTRUCTIONS TO VISIBILITY.

  * THESE STATIONS DO NOT REPORT WEATHER SUCH AS RAIN...SNOW OR FOG.

NEZ001>004-019>022-054>056-312300-
NEBRASKA PANHANDLE

CITY           SKY/WX    TMP DP  RH WIND       PRES   REMARKS
SCOTTSBLUFF    MOSUNNY   89  51  27 SW20G26   30.17F
ALLIANCE       MOSUNNY   81  62  52 E14       30.18F
CHADRON        MOSUNNY   94  52  24 VRB5      30.11F HX  91
KIMBALL        PTSUNNY   79  49  35 NW18G25   30.23F
SIDNEY         MOSUNNY   91  45  20 SE13      30.20F
$$

NEZ057>060-069>072-079>082-312300-
SOUTHWEST NEBRASKA

CITY           SKY/WX    TMP DP  RH WIND       PRES   REMARKS
NORTH PLATTE   MOSUNNY   92  56  29 S5        30.12F HX  90
IMPERIAL       SUNNY     94  47  20 NE7       30.14F HX  90
MCCOOK         SUNNY     95  56  26 S7        30.10F HX  93
$$

NEZ005>010-023>029-035>040-094-312300-
NORTH CENTRAL NEBRASKA

CITY           SKY/WX    TMP DP  RH WIND       PRES   REMARKS
VALENTINE      SUNNY     95  42  16 N8        30.10F HX  91
BROKEN BOW     MOSUNNY   93  61  34 W10       30.10F HX  93
ORD            TSTM      76  63  64 E5        30.06
$$

NEZ041-046>049-061>064-073>077-083>087-312300-
SOUTH CENTRAL NEBRASKA

CITY           SKY/WX    TMP DP  RH WIND       PRES   REMARKS
GRAND ISLAND   PTSUNNY   76  63  64 E13       30.11R
AURORA         MOSUNNY   76  67  72 N8        30.09S
HASTINGS       SUNNY     91  65  41 S7        30.08F HX  93
KEARNEY *      SUNNY     90  68  48 S15       30.09F HX  93
$$

NEZ011>018-030>034-042>045-312300-
NORTHEAST NEBRASKA

CITY           SKY/WX    TMP DP  RH WIND       PRES   REMARKS
NORFOLK        MOSUNNY   83  66  56 S14       30.07F
BLAIR          PTSUNNY   84  74  73 CALM      30.05F HX  91
COLUMBUS *     CLOUDY    77  66  69 NW6       30.09R
TEKAMAH        MOSUNNY   89  75  63 CALM      30.04F HX  99
$$

NEZ050>053-065>068-078-088>093-312300-
SOUTHEAST NEBRASKA

CITY           SKY/WX    TMP DP  RH WIND       PRES   REMARKS
LINCOLN        MOSUNNY   90  69  50 W7        30.05F HX  94
OMAHA EPPLEY   PTSUNNY   87  75  67 NW5       30.03F HX  96
FALLS CITY     MOSUNNY   89  74  60 E3        30.06F HX  98
$$

NEZ044-045-051>053-067-312300-
OMAHA AREA

CITY           SKY/WX    TMP DP  RH WIND       PRES   REMARKS
OMAHA EPPLEY   PTSUNNY   87  75  67 NW5       30.03F HX  96
BLAIR          PTSUNNY   84  74  73 CALM      30.05F HX  91
OFFUTT AFB     CLOUDY    86  73  64 SW2       30.03F HX  94
$$


USA.gov is the U.S. government's official web portal to all federal, state and local government web resources and services.